Weather Roundup
Issued by NWS Springfield, MO

Home | Current Version | Previous Version | Text Only | Print | Product List | Glossary On
Versions: 1 2 3 4 5 6 7 8 9 10 11 12 13 14 15 16 17 18 19 20 21 22 23 24 25 26 27 28 29 30 31 32 33 34 35 36 37 38 39 40 41 42 43 44 45 46 47 48 49 50
000
NZUS99 KSGF 300607
HRRSGF

HOURLY WEATHER
NATIONAL WEATHER SERVICE SPRINGFIELD MO
100 AM CDT SAT APR 30 2016

......SGF CWA......

CITY           SKY/WX    TMP DP  RH WIND       PRES   REMARKS
SPRINGFIELD    RAIN      61  58  90 E9        29.76F
6HR MIN TEMP:  59; 6HR MAX TEMP:  61; 6HR PCP:  0.74;

JOPLIN         CLOUDY    60  59  96 SE8       29.70R
6HR MIN TEMP:  58; 6HR MAX TEMP:  60; 6HR PCP:  1.38;

WEST PLAINS    LGT RAIN  60  58  92 SE8       29.85F FOG
6HR MIN TEMP:  59; 6HR MAX TEMP:  60; 6HR PCP:  0.01;

ROLLA          CLOUDY    56  55  97 E15       29.86F
6HR MIN TEMP:  56; 6HR MAX TEMP:  59; 6HR PCP:  1.00;

OSAGE BEACH    CLOUDY    57  48  72 E9        29.84F

......SURROUNDING SGF CWA......

CITY           SKY/WX    TMP DP  RH WIND       PRES   REMARKS
CHANUTE        CLOUDY    61  57  87 SE12      29.65F
PARSONS        CLOUDY    62  60  93 VRB3      29.67F
COFFEYVILLE    CLOUDY    62  60  93 SE6       29.65F
EMPORIA        CLOUDY    55  54  96 E9        29.65F
GROVE OK       CLOUDY    63  61  94 E5        29.69R
ROGERS AR      LGT RAIN  62  61  96 E10       29.71F
SILOAM SPRINGS CLOUDY    63  55  77 E6        29.70R
HARRISON AR    RAIN      61  61 100 E6        29.78R FOG
NEAR YELLVILLE CLOUDY   N/A N/A N/A E5        29.76R

......KANSAS AND MISSOURI......

CITY           SKY/WX    TMP DP  RH WIND       PRES   REMARKS
KANSAS CTY INT CLOUDY    52  50  93 NE15      29.73F FOG
DOWNTOWN KC    CLOUDY    54  52  93 E13       29.72F
COLUMBIA       RAIN      57  56  96 SE14      29.83F FOG
SEDALIA        LGT RAIN  58  56  93 SE17G30   29.80F
ST JOSEPH      LGT RAIN  50  48  93 E16       29.75F FOG
ST LOUIS       TSTM      59  55  88 SE8       29.92F FOG
SPIRIT OF STL  TSTM      57  57 100 E6        29.90F FOG
KIRKSVILLE     LGT RAIN  50  46  86 NE13      29.90F
WICHITA        CLOUDY    55  53  93 W9        29.68R FOG
TOPEKA         LGT RAIN  53  51  93 E16       29.69F
OLATHE         CLOUDY    55  54  96 E6        29.72F

......TENNESSEE......

CITY           SKY/WX    TMP DP  RH WIND       PRES   REMARKS
MEMPHIS        LGT RAIN  65  62  90 E8        29.83F
NASHVILLE      MOCLDY    65  60  84 CALM      29.92F

......ARKANSAS.......

CITY           SKY/WX    TMP DP  RH WIND       PRES   REMARKS
FAYETTEVILLE   LGT RAIN  64  62  93 SE12G22   29.69F
FT SMITH       LGT RAIN  66  63  90 E6        29.66F
LITTLE ROCK    TSTM      66  65  96 E8        29.78S FOG

......OKLAHOMA.......

CITY           SKY/WX    TMP DP  RH WIND       PRES   REMARKS
TULSA          CLOUDY    65  64  97 SE3       29.63S
PONCA CITY     CLOUDY    59  58  96 W7        29.67R FOG
MCALESTER      CLOUDY    65  62  90 CALM      29.63F
OKLAHOMA CITY  CLOUDY    54  53  97 NW14      29.69R FOG

......IOWA............

CITY           SKY/WX    TMP DP  RH WIND       PRES   REMARKS
DES MOINES     LGT RAIN  48  41  76 E15G25    29.96F
QUAD CITIES    MOCLDY    48  41  76 NE9       30.02F

......ILLINOIS........

CITY           SKY/WX    TMP DP  RH WIND       PRES   REMARKS
QUINCY         CLOUDY    51  46  83 E13       29.93S
CHICAGO        CLOUDY    43  37  79 E8        30.09F




USA.gov is the U.S. government's official web portal to all federal, state and local government web resources and services.